This is the latest recevied weather packets stored in our database for station/object W4UWO. If no packets are shown the sender has not sent any weather packets the latest 10 day(s).
| Time | Temp. | Humidity | Pressure | Rain* | Wind** | Luminosity | Snow |
|---|---|---|---|---|---|---|---|
| 1788221613 | 32.22° C | 52% | 1018.4 hPa | 0 mm | - | 5 W/m² | - |
| 1788221309 | 32.78° C | 52% | 1018.5 hPa | 0 mm | - | 8 W/m² | - |
| 1788221004 | 32.78° C | 51% | 1018.6 hPa | 0 mm | - | 12 W/m² | - |
| 1788220702 | 33.33° C | 50% | 1018.7 hPa | 0 mm | - | 16 W/m² | - |
| 1788220399 | 33.33° C | 49% | 1018.5 hPa | 0 mm | - | 21 W/m² | - |
| 1788220093 | 33.89° C | 48% | 1018.6 hPa | 0 mm | - | 26 W/m² | - |
| 1788219793 | 34.44° C | 47% | 1018.7 hPa | 0 mm | - | 34 W/m² | - |
| 1788219489 | 35° C | 46% | 1018.7 hPa | 0 mm | - | 43 W/m² | - |
| 1788219184 | 35° C | 45% | 1018.8 hPa | 0 mm | - | 57 W/m² | - |
| 1788218879 | 35° C | 45% | 1018.6 hPa | 0 mm | - | 67 W/m² | - |
| 1788218575 | 35° C | 44% | 1018.7 hPa | 0 mm | - | 79 W/m² | - |
| 1788218270 | 35° C | 44% | 1018.9 hPa | 0 mm | - | 96 W/m² | - |
| 1788217968 | 35.56° C | 42% | 1018.8 hPa | 0 mm | - | 114 W/m² | - |
| 1788217668 | 35.56° C | 42% | 1018.8 hPa | 0 mm | - | 122 W/m² | - |
| 1788217363 | 35.56° C | 42% | 1018.8 hPa | 0 mm | - | 138 W/m² | - |
| 1788217062 | 35.56° C | 42% | 1018.8 hPa | 0 mm | - | 147 W/m² | - |
| 1788216758 | 35.56° C | 43% | 1018.6 hPa | 0 mm | - | 158 W/m² | - |
| 1788216452 | 35.56° C | 42% | 1018.9 hPa | 0 mm | - | 180 W/m² | - |
| 1788216148 | 35.56° C | 42% | 1019 hPa | 0 mm | - | 190 W/m² | - |
| 1788215843 | 36.11° C | 41% | 1019.2 hPa | 0 mm | - | 205 W/m² | - |
| 1788215539 | 36.11° C | 41% | 1019.1 hPa | 0 mm | - | 230 W/m² | - |
| 1788215235 | 36.11° C | 40% | 1018.9 hPa | 0 mm | - | 254 W/m² | - |
| 1788214931 | 35.56° C | 41% | 1018.9 hPa | 0 mm | - | 274 W/m² | - |
| 1788214626 | 35° C | 43% | 1019 hPa | 0 mm | - | 295 W/m² | - |
| 1788214321 | 36.11° C | 41% | 1019 hPa | 0 mm | - | 311 W/m² | - |
* Rain latest hour (hover to see other rain measurements)
** Current wind speed in m/s (hover to see current wind gust speed)